Wind_Speed
20 21 21 21 20 19 18 17 17 17 18 18 19 20 22 23 24 25 26 27 27 27 28 29 29 30 31 32 32 32 32 32 32 31 30 30 29 27 26 25 24 24 25 25 26 26 25 25 24 23 23 22 22 22 21 21 21 20 20 20 19 18 18 18 18 19 19 19 17
21 21 21 21 21 21 20 20 20 20 20 20 21 21 22 23 23 24 26 27 27 28 29 30 31 32 33 33 33 33 33 33 33 32 31 30 29 27 25 24 24 24 25 25 26 26 26 26 25 24 24 23 23 22 22 21 21 21 21 21 20 19 19 18 19 19 20 20 19
22 22 22 22 22 22 22 21 21 21 22 22 22 22 23 23 23 24 25 26 27 29 30 30 32 33 34 34 34 34 34 33 33 33 32 30 28 26 25 24 23 24 24 25 25 26 26 26 26 26 25 24 23 23 22 22 21 21 21 21 20 20 19 19 19 19 19 19 19
23 23 23 23 23 23 23 23 23 23 23 23 23 23 23 24 24 24 25 26 27 28 29 30 31 33 33 34 34 35 34 34 34 33 32 30 28 26 25 24 24 24 24 24 24 25 25 26 26 26 26 25 24 23 22 22 22 22 22 21 21 21 20 20 19 19 19 19 19
24 24 24 24 24 24 24 24 24 24 24 24 24 24 24 25 25 25 25 26 26 27 28 29 31 32 33 34 34 35 35 35 34 33 32 30 28 26 25 25 24 24 24 24 24 24 24 24 25 25 25 24 24 23 23 23 23 23 23 22 22 21 21 21 20 20 20 20 20
25 25 25 24 25 25 25 25 25 24 24 24 24 25 26 26 26 26 26 26 27 28 28 29 30 31 32 33 34 34 35 35 35 34 32 31 29 27 26 26 25 25 25 25 24 24 24 24 24 24 23 23 24 24 24 23 23 23 23 23 22 22 22 22 22 21 21 21 21
26 25 25 25 25 25 25 25 24 24 24 24 25 25 26 27 27 26 27 27 28 28 29 29 30 31 32 33 33 34 34 35 35 35 33 32 30 28 28 27 27 27 26 26 25 25 24 24 23 23 24 23 23 23 23 23 23 22 22 22 22 22 22 22 22 22 22 22 22
26 26 25 25 25 24 24 24 24 23 23 24 24 25 26 27 27 28 28 28 28 29 29 29 30 31 31 32 33 34 34 35 35 35 34 33 32 31 30 29 29 29 28 27 26 25 25 24 23 23 23 22 23 23 22 22 22 22 22 22 22 22 22 23 23 23 23 23 23
26 26 26 25 25 24 23 23 23 23 23 24 25 25 26 27 28 28 28 28 29 29 29 30 30 31 32 32 33 34 34 35 35 35 35 34 33 32 32 31 31 30 30 29 27 26 25 24 23 23 22 22 22 22 22 22 22 22 22 21 22 22 23 23 23 23 23 24 24
27 27 26 26 25 25 24 24 24 24 24 25 26 26 27 27 27 28 28 29 29 29 30 30 31 31 32 33 33 34 34 35 35 35 35 35 34 34 33 33 32 32 31 30 29 28 26 25 24 24 23 23 22 22 22 22 22 22 22 22 22 23 24 24 24 24 24 24 25
28 28 28 27 27 26 26 25 25 26 26 26 27 27 26 26 27 27 28 29 30 30 30 31 31 32 32 33 34 34 34 35 35 35 35 35 35 34 34 34 33 32 32 31 30 29 28 26 25 25 24 24 23 22 22 22 21 22 22 22 23 23 24 24 24 24 25 25 25
27 28 28 27 27 27 27 27 27 27 27 27 27 26 26 25 26 27 28 29 30 31 31 32 32 32 33 33 34 34 34 35 35 35 35 35 35 34 34 34 34 33 33 32 31 30 28 27 26 26 26 25 25 23 23 22 21 21 22 23 23 23 24 25 25 25 25 25 26
25 25 26 26 27 27 27 28 28 28 28 28 27 26 26 26 26 27 29 30 31 32 32 33 33 33 33 33 34 34 35 35 35 35 35 35 35 35 35 34 34 34 34 33 32 31 30 29 28 28 28 27 26 25 24 22 22 22 22 23 23 24 24 25 25 26 26 26 26
23 24 25 26 27 28 28 29 29 29 30 30 29 28 28 28 29 29 30 31 32 33 33 34 34 34 34 34 34 35 35 35 35 35 35 36 35 35 35 35 35 35 34 34 33 32 31 31 30 30 29 29 28 27 26 24 23 23 23 24 24 25 25 25 25 26 27 27 28
25 25 26 27 28 28 29 30 30 31 32 33 33 32 31 30 30 31 31 32 33 33 34 34 34 35 35 35 35 36 36 36 36 36 36 36 36 35 35 35 35 35 34 34 34 34 33 32 32 31 31 30 30 29 28 26 26 25 25 25 25 26 26 26 26 26 27 27 28
27 27 27 28 28 28 29 29 30 31 33 35 36 35 33 32 31 31 32 32 33 33 34 34 35 36 36 37 36 36 36 36 36 36 36 35 35 35 35 35 35 35 35 35 35 35 34 33 33 32 31 31 31 30 29 28 28 27 27 27 27 27 27 27 26 26 27 27 28
27 27 27 27 27 27 27 28 29 30 32 34 36 35 34 33 32 32 32 32 33 33 34 35 36 36 37 37 37 37 36 36 36 36 35 35 35 35 35 35 35 35 35 35 35 35 35 34 34 33 32 32 31 31 30 29 29 28 28 28 28 28 28 28 27 27 27 28 29
25 25 25 26 26 27 27 28 29 30 31 32 33 34 34 33 33 33 33 34 34 34 35 36 36 37 37 37 38 37 37 36 36 36 36 36 36 36 36 36 36 36 35 35 35 35 35 34 34 33 32 31 31 30 30 30 29 29 29 29 29 29 29 29 28 28 27 28 29
24 24 25 25 26 27 28 28 29 29 30 31 32 33 34 34 34 35 35 35 35 36 36 36 37 37 37 37 37 37 37 37 36 36 36 36 36 36 36 36 36 36 36 36 35 35 35 34 33 32 32 31 31 30 30 30 30 30 30 30 30 30 30 30 30 29 29 29 29
24 24 25 26 26 27 28 28 29 30 31 31 32 33 34 35 35 35 36 36 36 36 36 36 36 36 36 37 37 37 37 36 36 36 36 36 36 36 36 36 37 37 36 36 35 35 34 34 33 32 31 31 30 30 30 30 30 30 30 30 31 31 31 31 30 30 30 30 30
25 26 26 27 27 28 29 29 30 31 32 32 33 34 34 35 35 35 35 36 36 35 35 35 35 35 35 35 35 36 36 36 35 35 36 36 36 37 37 37 37 37 36 36 35 34 34 33 32 32 31 30 30 30 29 29 29 30 30 30 30 30 30 30 30 30 30 30 31
26 27 28 28 29 29 30 31 31 32 33 33 34 34 34 35 35 35 35 35 35 34 34 33 33 33 33 33 33 33 34 34 34 35 35 36 36 37 37 37 36 36 36 35 34 34 34 33 33 32 32 31 31 30 30 30 30 30 31 31 31 31 30 30 30 30 31 31 31
28 29 30 30 31 31 32 32 33 33 33 34 34 34 34 34 34 34 34 34 34 33 33 32 32 31 31 31 31 32 32 33 34 35 35 36 36 36 36 36 36 35 35 35 34 34 33 33 33 33 32 32 32 32 31 31 31 31 31 31 31 31 31 30 30 30 30 31 31
30 31 31 31 32 32 33 33 33 33 33 34 34 34 34 34 34 34 34 34 34 34 33 33 33 32 32 32 32 32 32 32 33 34 35 35 36 36 36 35 34 34 34 34 34 34 33 33 33 32 33 33 32 32 32 32 32 32 31 31 31 31 31 31 31 30 30 31 31
31 31 32 32 32 33 33 33 33 33 33 33 34 34 34 34 34 34 34 35 35 35 35 35 34 34 34 34 34 34 34 34 34 34 34 35 35 35 35 34 34 34 34 34 34 34 34 34 33 32 32 32 32 32 32 32 32 32 31 31 31 31 32 32 32 32 32 31 32
31 32 32 32 32 33 33 33 33 33 33 34 34 34 34 35 35 35 35 36 36 36 36 36 35 35 36 36 36 36 36 35 35 35 34 34 35 35 35 35 34 34 34 34 35 35 35 35 35 34 33 33 33 33 33 33 33 32 32 32 31 31 31 31 32 32 32 31 32
31 31 32 32 32 33 33 33 33 34 34 34 34 35 35 35 36 36 36 37 37 37 36 35 35 36 36 36 36 36 36 36 36 35 35 35 35 36 36 36 35 35 35 37 37 37 38 38 38 38 37 36 35 35 35 34 34 33 32 32 32 31 31 31 32 33 32 32 32
31 31 32 32 32 33 33 34 34 34 34 35 35 35 36 36 37 37 37 37 37 37 35 34 34 35 35 33 35 36 36 36 36 36 36 36 36 37 37 37 37 38 39 39 40 40 40 41 41 41 41 39 37 35 34 35 34 33 32 32 31 31 31 32 31 31 31 32 32
31 31 32 32 33 33 34 34 34 34 35 35 35 36 36 37 37 37 37 37 36 35 34 33 33 32 32 33 35 36 36 36 36 36 37 37 38 38 39 39 39 40 41 41 41 41 41 41 42 42 41 40 36 34 33 32 31 32 32 32 32 32 31 30 30 30 30 29 30
31 31 32 32 33 34 34 35 35 35 35 35 36 36 36 37 37 37 36 36 36 35 35 33 33 32 33 34 35 35 35 36 36 36 35 36 37 38 39 40 40 40 41 41 41 41 41 41 41 40 40 39 37 34 32 31 31 32 32 31 31 32 33 33 32 31 30 29 29
31 31 32 33 34 34 35 35 35 36 35 35 36 36 36 36 36 36 36 36 36 36 36 35 35 35 35 35 35 35 35 36 36 36 35 36 37 38 38 39 38 39 40 40 40 40 41 41 41 40 40 39 38 35 32 31 31 32 33 32 33 33 34 34 33 33 32 31 31
32 32 33 33 34 35 35 36 36 36 36 36 36 36 36 35 35 36 36 35 35 36 35 35 35 35 35 36 35 35 35 35 35 35 35 35 36 37 37 37 38 39 39 40 40 40 41 41 41 41 41 40 38 36 35 34 34 34 34 35 36 36 36 35 33 33 33 32 32
32 33 33 33 34 35 36 36 36 36 35 35 35 35 35 36 36 36 36 35 35 34 34 34 34 35 35 35 35 36 35 35 35 35 36 36 35 36 37 38 38 38 38 38 38 39 40 40 40 40 41 40 39 38 38 37 36 35 36 36 36 37 37 36 35 34 33 33 33
32 33 33 34 35 35 36 36 35 35 35 35 35 35 35 35 35 35 35 35 34 34 34 34 34 34 34 35 35 35 36 36 36 36 36 36 36 36 37 37 37 37 36 37 38 38 39 39 39 40 40 40 39 38 38 38 37 36 36 36 36 36 36 36 36 36 35 34 33
32 33 33 34 35 35 35 36 35 35 35 35 35 36 36 35 35 35 35 35 35 34 35 35 34 34 34 34 34 35 36 36 37 37 37 37 36 36 37 38 39 39 38 38 38 39 39 39 39 39 38 38 37 36 36 36 36 36 36 36 36 36 36 35 35 35 34 34 34
32 32 33 34 35 35 35 35 35 35 35 35 35 35 36 36 36 35 35 34 34 34 35 35 35 34 34 35 35 35 35 35 36 36 37 37 36 37 38 39 40 40 40 39 39 39 39 39 39 39 38 36 35 34 34 33 33 34 34 35 35 36 37 36 36 35 35 34 35
32 32 33 34 34 34 34 34 34 34 35 35 35 35 35 36 36 35 35 34 33 34 35 35 35 34 34 35 35 36 37 37 37 37 38 38 37 37 38 39 40 41 41 40 40 40 40 40 40 40 39 37 36 35 34 33 33 33 33 34 35 36 36 36 36 36 36 35 35
32 32 32 33 33 34 34 34 34 34 34 35 35 35 35 35 35 35 34 33 33 34 35 35 35 35 35 36 36 37 38 38 38 38 38 38 38 38 39 39 40 41 41 40 40 40 40 41 41 41 40 39 37 36 34 32 32 32 32 32 33 34 35 34 34 34 35 36 36
32 32 32 32 33 33 33 33 34 34 34 35 35 36 35 35 35 35 34 33 33 33 34 35 35 36 37 37 37 37 37 38 38 37 37 38 38 39 39 39 40 41 40 40 40 41 41 41 42 42 41 40 38 36 33 31 31 31 31 31 31 32 33 33 34 34 34 36 37
32 32 31 31 32 32 33 33 34 34 34 34 35 35 35 35 35 35 34 33 33 33 34 35 36 37 37 37 37 37 38 38 38 38 37 38 39 40 40 40 41 41 41 41 41 42 43 43 43 43 42 40 38 35 32 30 29 29 30 30 30 30 31 32 33 32 33 34 37
31 31 31 31 31 31 32 33 34 34 34 34 34 35 35 35 35 34 34 33 34 34 34 35 36 38 38 37 37 37 37 38 39 39 39 38 39 40 40 40 40 41 41 42 42 42 43 43 43 43 42 40 37 34 31 29 28 28 29 29 29 28 27 27 28 28 29 31 33
Wind_Direction
297 299 302 304 305 305 304 304 304 305 309 312 316 318 320 321 322 322 321 320 318 316 316 316 316 317 318 318 318 317 316 315 315 314 313 312 311 309 308 308 309 311 313 315 316 319 321 324 326 327 328 329 328 325 320 315 310 306 303 302 301 301 301 302 303 306 308 309 310
292 294 296 298 298 299 298 298 298 299 301 304 307 310 313 315 317 317 317 316 315 315 315 315 316 317 317 317 317 316 316 315 314 313 312 311 309 307 306 305 306 307 309 311 312 314 317 320 322 324 325 325 326 325 322 318 313 308 303 301 300 300 299 298 299 301 304 306 308
288 289 291 292 293 293 293 293 293 295 296 298 300 303 307 310 312 312 312 312 312 312 313 314 315 316 316 316 316 315 315 315 314 313 312 310 308 305 303 303 304 305 307 308 309 311 313 315 317 319 321 322 323 322 321 318 314 309 304 300 299 298 297 295 295 297 299 301 303
284 285 286 287 288 288 288 289 290 291 292 294 296 299 302 305 306 307 307 307 308 309 311 312 313 314 314 314 314 314 314 314 314 313 311 309 306 304 302 301 302 304 306 307 308 308 309 310 311 313 315 317 319 318 317 315 313 308 304 300 298 296 294 293 292 293 295 295 296
281 282 283 283 284 285 285 285 286 287 289 291 293 296 298 300 302 303 303 303 304 306 308 310 311 312 312 313 313 313 313 313 313 313 311 308 305 303 301 300 302 303 305 306 307 307 307 307 307 307 308 310 311 311 311 311 309 306 302 299 296 294 292 291 290 290 291 291 291
282 282 281 281 281 281 282 282 282 284 286 288 291 293 296 297 299 299 300 300 302 304 306 307 309 310 311 311 311 311 311 311 312 311 310 307 305 302 301 300 301 303 304 305 306 306 306 305 304 303 302 303 303 304 304 305 305 302 300 296 293 291 290 289 288 288 287 287 287
284 283 283 282 281 280 279 279 280 281 283 286 289 292 294 296 297 297 297 298 300 301 304 305 307 308 309 309 309 308 309 309 309 308 308 306 304 302 301 301 301 302 303 303 304 304 304 303 302 300 299 298 298 298 299 301 301 299 297 294 292 290 288 286 286 285 284 283 283
287 286 285 284 282 280 279 278 279 280 282 285 288 291 294 295 296 296 296 297 298 300 302 303 305 306 306 306 306 306 306 306 306 305 305 304 303 302 301 300 301 301 301 301 301 301 301 300 299 297 296 296 295 295 295 296 296 295 293 291 290 289 287 285 284 283 282 281 280
292 290 289 287 284 282 280 279 279 281 283 285 287 290 292 294 295 295 295 296 297 299 300 302 303 304 304 304 303 303 303 303 303 302 302 301 301 300 300 299 299 299 299 299 299 299 298 298 296 295 293 292 291 291 291 292 291 290 289 288 288 287 285 284 282 281 279 278 277
297 295 293 290 287 284 282 281 281 282 284 286 287 289 290 291 292 293 294 296 297 298 299 300 301 302 302 302 301 301 301 301 300 300 299 299 298 298 298 297 297 297 297 297 297 296 296 295 293 292 290 289 288 288 288 288 287 286 285 285 285 285 284 282 281 279 278 276 275
303 301 298 295 292 290 287 285 285 285 286 286 287 288 288 289 291 293 295 297 297 297 298 299 300 300 300 300 300 300 299 299 298 297 297 296 296 296 295 295 295 295 295 295 295 294 293 292 290 289 288 287 286 285 285 284 283 283 282 282 283 283 282 281 279 278 276 274 273
311 309 307 305 302 299 296 293 292 290 289 289 288 288 289 290 293 296 297 298 297 297 298 298 298 298 298 298 298 298 297 297 296 295 294 294 293 293 293 293 293 293 293 293 292 292 291 289 288 287 286 285 284 283 282 282 281 281 281 282 282 281 281 280 279 277 275 273 271
321 320 319 318 316 314 310 307 304 301 298 295 293 292 293 294 296 298 299 298 297 297 297 297 297 297 296 296 296 296 295 294 293 292 291 291 291 291 291 290 290 291 290 290 290 289 288 287 285 285 284 284 283 282 281 280 279 279 280 281 281 281 281 280 279 277 274 271 269
329 328 327 327 326 324 322 320 316 313 308 304 300 298 297 296 296 296 296 295 295 295 295 295 295 295 294 294 294 293 292 292 291 290 289 289 289 288 288 288 289 288 288 288 288 287 286 284 284 283 282 281 281 281 280 279 278 278 279 280 280 280 280 280 279 277 274 271 268
327 325 325 324 324 324 323 321 319 316 312 308 304 301 298 296 294 293 292 291 291 292 292 293 293 293 293 293 292 291 290 289 288 287 287 287 287 286 287 286 287 286 286 286 285 285 284 282 282 281 280 279 279 279 279 279 279 279 279 279 279 279 279 279 278 277 274 269 266
321 320 318 318 317 317 317 316 314 312 310 306 303 300 298 296 294 293 291 291 291 291 291 291 291 292 292 291 290 289 288 287 286 285 284 284 284 284 284 284 284 284 284 284 283 283 282 281 280 279 278 277 277 278 278 278 278 279 279 279 279 279 279 278 277 276 273 269 265
318 317 315 314 313 312 310 309 307 306 303 301 300 299 298 298 297 295 294 293 292 292 291 291 291 291 290 290 289 288 287 285 284 283 282 282 282 282 282 282 282 282 282 282 282 281 280 279 278 277 276 275 275 275 276 277 277 278 279 279 279 279 278 277 276 275 272 269 266
317 316 314 312 310 308 306 304 302 300 298 298 298 298 299 299 299 297 296 294 293 292 291 291 290 290 289 288 287 286 285 284 282 281 281 280 280 280 280 280 281 281 281 280 280 279 278 278 276 275 274 273 273 274 274 275 276 277 278 279 279 278 278 277 276 274 272 269 266
317 316 314 311 309 307 305 303 302 300 299 299 299 300 300 299 299 298 296 295 294 293 291 291 290 289 287 286 285 284 283 282 281 281 280 280 279 279 279 279 279 280 280 279 278 277 277 276 275 273 273 272 272 273 273 274 275 276 277 277 278 278 277 276 275 274 272 270 267
318 317 315 313 311 309 308 306 305 303 303 302 301 301 300 299 299 298 296 295 295 294 292 291 289 288 287 286 285 283 283 282 281 281 280 280 279 279 278 278 279 279 278 277 277 276 275 274 273 272 271 271 271 272 272 273 274 275 276 276 277 276 276 275 275 274 272 271 269
319 317 315 314 312 310 309 307 306 305 304 303 302 301 301 300 299 298 297 297 296 295 294 292 291 289 288 287 285 284 283 283 282 281 281 280 279 279 278 278 278 277 277 276 275 274 273 272 271 270 270 270 270 271 272 273 274 275 276 276 275 275 274 273 273 272 271 270 269
318 317 315 314 312 311 309 308 307 306 305 304 303 302 302 301 300 300 299 299 299 298 297 296 294 293 291 290 289 287 286 285 284 283 282 281 280 279 278 278 277 276 275 274 273 272 271 270 270 270 270 270 270 271 272 273 275 275 275 275 274 273 272 272 271 271 271 269 268
318 316 315 314 312 311 310 309 308 307 306 305 304 304 303 302 302 301 301 301 301 300 300 299 298 297 296 295 294 292 291 289 288 286 284 283 281 280 279 278 276 275 273 272 271 270 270 270 270 270 270 270 271 272 273 273 274 275 274 274 273 272 271 271 271 271 271 270 268
317 316 314 313 312 311 310 309 308 307 306 305 305 304 304 303 303 303 303 302 301 301 301 300 300 299 298 297 296 295 294 292 290 288 286 285 283 281 280 278 276 274 272 271 270 269 268 268 269 269 270 270 271 272 273 273 273 273 272 272 271 271 270 270 270 270 271 271 269
316 315 313 312 311 310 309 308 308 307 306 306 305 305 304 304 303 303 302 302 301 300 300 300 299 299 298 297 295 294 293 291 289 288 286 285 283 281 280 278 276 274 272 271 269 268 268 267 267 268 269 270 272 272 273 273 272 270 269 268 268 268 268 268 269 268 268 268 268
315 314 313 312 311 310 309 308 307 307 306 306 305 305 304 303 303 302 301 300 300 299 299 298 298 297 296 294 293 291 290 288 286 285 284 283 282 280 279 277 275 273 272 270 269 269 268 268 268 268 269 270 271 272 272 271 270 268 266 266 265 265 265 265 266 266 265 265 265
314 313 312 311 311 310 308 308 307 307 306 306 305 305 304 303 302 301 300 299 299 298 298 297 297 295 294 292 290 289 287 286 284 283 282 281 280 279 278 276 274 273 271 271 270 270 270 270 270 270 269 269 269 269 269 268 268 266 264 264 263 262 262 262 263 264 264 264 263
314 313 313 312 311 309 308 308 307 307 306 306 305 304 303 303 302 300 299 299 298 298 298 297 295 294 292 291 288 287 286 285 284 282 281 280 279 278 276 275 274 272 272 271 271 271 271 271 271 270 270 269 267 265 264 265 264 263 262 262 261 260 261 262 262 263 263 263 262
314 314 313 312 310 309 308 307 307 306 306 305 305 304 303 302 301 300 299 299 298 298 297 296 295 294 292 289 288 287 286 285 283 282 281 280 278 277 275 274 273 272 272 271 271 271 271 270 270 270 269 268 265 263 262 261 260 260 261 261 260 260 260 261 262 264 264 264 263
315 314 313 312 310 309 308 307 306 306 305 305 304 303 303 301 300 299 299 298 298 297 296 295 294 293 290 288 288 287 286 285 284 282 281 280 278 277 275 274 273 273 272 272 271 271 270 270 269 268 268 267 265 262 261 259 259 259 259 259 259 259 260 260 261 262 264 266 267
315 314 313 311 309 308 307 306 306 305 305 304 303 302 301 300 299 299 298 297 297 296 295 294 292 290 289 288 287 286 285 284 283 282 280 279 278 277 276 275 274 273 272 272 271 271 270 269 268 268 267 266 265 263 261 259 259 259 258 258 257 257 257 259 259 260 261 263 266
315 314 312 311 309 307 306 306 305 305 304 303 302 301 300 299 298 297 297 296 296 295 295 293 291 290 288 288 286 285 284 283 282 281 280 278 277 277 276 276 275 274 273 272 271 270 269 268 267 267 266 266 264 263 261 260 259 258 257 257 256 256 256 256 256 257 258 260 262
315 314 312 310 308 307 306 305 305 304 303 302 301 300 299 299 298 297 297 296 296 295 293 291 290 289 288 287 286 286 284 283 281 280 279 278 277 276 276 276 275 273 272 271 270 269 268 267 266 266 265 264 263 261 260 258 257 256 255 255 254 254 254 254 254 255 256 257 258
314 313 311 309 308 306 306 305 304 304 303 302 301 300 299 299 298 297 297 296 295 294 292 290 289 288 287 286 285 284 284 283 282 281 279 279 278 277 276 275 274 273 272 271 270 270 269 268 266 265 264 263 261 259 257 255 254 253 252 252 252 252 252 253 253 253 254 254 254
314 312 311 309 308 307 306 305 305 304 303 302 301 300 299 299 298 297 296 296 295 294 292 290 289 287 286 285 283 283 282 282 281 280 279 278 277 276 275 274 273 273 272 271 270 269 269 268 267 265 264 262 260 257 255 253 251 251 251 251 252 252 252 252 251 251 251 252 251
313 312 310 309 308 307 306 306 305 304 303 302 301 300 300 299 298 297 297 296 295 294 292 291 290 288 286 285 284 282 281 280 280 279 278 277 276 275 274 273 273 273 272 270 269 269 268 267 266 265 264 262 260 257 255 253 252 251 251 251 251 252 252 251 250 250 249 249 248
313 312 310 309 308 307 306 306 305 304 303 302 301 300 300 299 299 298 298 297 296 294 293 292 290 288 286 285 284 282 281 280 279 279 278 276 275 274 273 273 273 272 272 270 269 268 267 266 265 264 262 261 259 257 255 253 253 252 251 251 251 251 250 250 249 248 248 247 244
313 312 310 309 307 307 306 305 304 303 302 302 301 301 300 300 299 298 298 297 295 294 292 291 289 287 286 285 283 282 281 280 278 277 276 275 274 273 273 273 272 272 272 271 270 268 267 266 264 262 260 258 256 254 253 252 251 250 249 249 249 249 248 248 247 247 246 244 239
312 311 310 308 307 306 305 304 303 303 302 302 301 301 300 300 299 298 297 296 294 292 291 290 288 287 286 286 284 283 281 280 278 277 275 274 274 273 273 273 273 273 272 272 270 269 267 266 264 262 259 257 255 252 250 249 247 246 246 246 247 247 247 246 245 244 243 240 234
312 311 309 308 306 305 304 304 303 302 302 301 301 300 300 299 298 297 296 295 293 291 290 289 288 287 287 286 285 283 282 281 279 278 276 275 274 274 274 273 273 273 273 272 271 269 268 266 264 262 260 257 254 251 248 246 244 243 242 243 244 244 244 243 240 238 235 231 224
311 310 309 307 306 305 304 303 303 302 302 301 300 299 299 298 297 297 296 294 293 292 290 289 288 288 287 286 285 283 282 281 280 279 278 276 275 275 275 274 273 273 273 272 271 269 268 266 264 262 260 257 254 250 246 243 241 240 240 240 240 239 236 232 228 223 218 213 207
Height
783 782 781 780 779 778 777 777 776 775 774 773 772 772 771 770 769 768 768 767 767 766 765 764 764 763 762 762 761 760 760 759 758 758 757 757 757 756 756 755 754 754 753 753 752 752 752 751 751 751 751 751 751 750 750 750 750 749 749 748 748 748 747 747 747 747 746 746 746
781 780 780 779 778 777 776 775 775 774 773 772 771 770 770 769 768 767 766 766 766 765 764 763 762 762 761 760 760 759 758 757 757 756 756 755 755 754 754 753 753 752 752 751 751 751 750 750 750 749 749 749 749 749 749 749 749 748 748 747 747 747 746 746 746 745 745 745 744
779 778 778 777 777 776 775 774 773 772 772 771 770 769 768 767 767 766 765 764 764 763 762 761 760 760 759 758 758 757 757 756 755 754 754 753 753 753 752 752 751 751 750 750 749 749 749 748 748 748 747 747 747 747 747 747 747 747 747 746 746 746 745 745 744 744 744 743 743
777 777 776 775 775 774 773 772 771 770 770 769 768 767 767 766 765 764 763 763 762 761 760 760 759 758 757 757 756 755 755 754 753 753 752 752 751 751 751 750 749 749 749 748 748 747 747 747 747 747 746 746 746 746 746 746 746 746 745 745 745 744 744 743 743 743 742 742 742
775 774 774 773 772 772 771 770 769 768 768 767 766 766 765 764 763 763 762 761 760 759 758 758 757 756 755 755 754 753 752 752 752 751 750 750 749 749 749 748 748 747 747 747 746 746 746 745 745 745 745 745 745 745 745 745 745 744 744 743 743 743 742 742 742 742 741 741 740
773 772 772 771 771 770 769 768 767 767 766 765 764 764 763 762 762 761 760 759 758 757 757 756 755 754 753 753 752 751 751 750 749 749 748 748 747 747 747 746 746 745 745 744 744 744 743 743 743 743 743 743 743 743 743 743 743 742 742 742 741 741 741 740 740 740 740 739 739
771 771 770 769 769 768 767 767 766 765 764 763 762 762 761 761 760 759 758 757 757 755 754 754 753 752 752 751 750 749 748 748 747 747 747 746 745 745 745 744 743 743 743 742 742 742 742 741 741 741 741 741 741 741 741 742 742 741 740 740 739 739 739 738 738 738 738 737 737
770 769 768 768 767 766 765 765 764 763 762 762 761 760 759 759 758 757 757 756 755 754 753 752 751 750 749 749 748 747 746 746 745 744 744 744 743 742 742 742 741 741 740 740 740 739 739 739 739 738 738 738 738 739 739 739 739 739 739 738 737 737 737 737 736 736 736 736 735
769 768 767 766 765 765 764 763 762 761 760 760 759 758 757 757 757 756 755 754 753 752 751 750 749 748 747 747 746 745 744 743 743 742 742 741 741 740 740 739 739 738 738 738 737 737 737 737 736 736 736 736 736 736 737 737 737 737 737 736 736 735 735 735 734 734 734 734 733
768 767 766 765 764 763 762 761 760 759 758 757 757 756 756 755 755 754 754 753 752 751 750 748 747 747 746 745 744 743 742 741 741 740 739 738 738 737 737 737 736 736 735 735 735 735 734 734 734 733 733 733 733 734 734 734 734 734 734 734 734 733 733 732 732 732 732 732 731
767 766 765 764 763 762 761 760 759 758 757 756 755 754 753 753 752 752 752 751 750 749 748 747 746 745 744 743 742 741 740 739 738 737 737 736 735 735 734 734 733 733 732 732 732 732 732 731 731 731 730 731 731 731 731 732 732 732 732 732 732 731 731 730 730 730 730 729 729
766 765 764 764 763 762 761 759 758 757 756 755 753 752 752 751 750 750 750 749 748 747 746 746 745 743 742 741 740 739 738 737 736 735 734 733 733 732 732 731 731 730 730 729 729 729 729 728 728 728 727 727 728 728 728 729 729 729 729 729 729 729 728 728 728 728 727 727 727
765 764 764 763 762 761 760 759 757 757 755 754 753 752 750 749 748 748 747 747 746 745 744 743 742 742 740 739 738 737 736 735 734 733 732 731 730 730 729 728 728 727 727 727 727 727 726 726 725 725 725 724 725 725 725 726 726 726 726 726 726 726 726 726 726 726 725 725 724
763 763 762 761 761 760 759 758 757 756 755 754 753 751 749 748 747 747 746 745 744 743 742 741 740 739 738 737 736 735 734 733 732 731 730 729 728 727 726 726 725 725 724 724 724 724 723 723 722 722 722 721 721 722 722 722 723 723 723 723 723 723 723 723 723 723 723 722 722
762 761 760 759 759 758 757 757 756 755 755 754 753 751 749 747 746 745 744 743 742 741 740 738 737 737 736 735 734 733 732 731 730 729 727 726 725 724 724 723 722 722 722 721 721 721 721 720 720 719 719 718 718 718 719 719 719 720 720 720 720 720 720 720 721 721 721 720 719
760 759 758 758 757 757 756 755 754 754 754 753 753 751 748 746 744 743 742 741 739 738 737 736 735 734 733 732 731 730 729 728 727 726 725 724 723 722 721 720 720 719 719 718 718 717 717 717 717 717 716 716 715 715 715 716 716 716 717 717 717 717 717 717 718 718 717 717 717
759 758 757 757 756 755 754 754 753 753 752 752 751 749 747 745 743 742 740 739 738 736 735 734 733 732 730 729 728 727 727 725 724 723 722 721 720 719 718 717 717 716 716 715 715 714 714 714 714 714 713 713 712 712 712 712 712 713 713 713 713 713 714 714 714 715 715 714 714
758 757 757 756 755 754 753 752 751 751 750 749 748 746 744 743 741 740 738 737 736 734 732 731 730 729 728 727 726 725 724 722 721 720 719 718 717 716 715 714 714 713 713 712 712 711 711 711 711 711 710 710 710 709 709 709 709 709 710 710 710 710 710 711 711 711 711 711 711
758 757 756 755 754 753 752 751 749 748 747 746 745 743 742 740 739 737 736 734 733 732 730 728 727 726 725 724 722 722 721 720 718 717 716 715 714 713 712 712 711 710 710 709 709 708 708 708 707 707 707 707 707 707 707 707 707 707 707 707 707 707 707 707 707 708 708 708 707
757 756 755 754 753 752 751 749 748 747 745 744 742 741 739 738 737 735 733 732 731 729 728 726 725 723 722 721 720 719 718 717 716 714 713 712 712 710 709 709 708 707 707 707 706 705 705 705 704 704 704 704 704 703 703 703 704 704 704 704 704 704 704 704 704 704 704 704 704
756 755 754 752 752 750 749 747 746 745 743 742 740 739 737 736 734 733 731 729 728 727 725 723 722 721 719 718 717 716 715 714 713 712 710 709 708 707 707 706 705 704 704 703 703 702 702 702 702 701 701 701 701 701 701 701 701 701 701 701 701 701 701 701 701 701 701 701 701
754 753 752 751 750 748 747 746 744 743 741 740 738 737 735 733 732 730 729 727 726 724 723 721 720 718 717 716 715 713 712 711 710 709 707 707 705 704 703 703 702 701 701 700 700 699 699 699 698 698 698 698 698 698 698 698 698 698 698 698 698 698 698 698 697 697 697 697 697
752 752 750 749 748 747 745 743 742 741 739 737 736 734 733 731 730 728 726 725 723 722 720 719 718 717 715 714 713 711 710 708 707 706 705 704 702 701 700 700 699 698 697 697 697 696 696 695 695 695 695 695 695 695 695 695 695 695 695 695 695 695 695 695 695 694 694 694 693
751 750 749 747 746 744 743 742 740 738 737 735 734 732 731 729 727 726 724 722 721 719 718 717 715 714 713 711 710 709 707 706 704 703 702 701 699 698 697 697 696 695 694 693 693 693 692 692 692 692 692 692 692 692 692 692 692 692 692 692 692 692 691 691 691 691 691 691 690
749 748 747 746 744 742 741 739 738 736 735 733 732 730 728 727 725 723 722 720 718 717 716 714 712 711 710 708 707 706 705 703 702 701 699 698 697 696 695 694 693 692 691 690 689 689 689 689 689 689 689 689 689 689 688 689 689 689 689 689 688 688 688 688 688 688 688 687 687
748 746 745 743 742 740 739 737 736 734 732 731 729 728 726 724 723 721 719 717 716 714 713 712 710 708 707 706 704 703 702 701 699 698 697 695 694 693 692 691 689 688 687 687 686 686 685 686 686 686 686 686 686 686 685 685 685 685 685 685 685 685 685 684 683 683 684 684 684
746 745 743 742 740 738 737 735 734 732 731 729 727 726 724 722 721 719 717 715 713 712 710 709 707 706 704 703 702 700 698 697 696 695 694 692 691 690 688 687 686 685 684 683 682 682 682 682 682 682 683 683 683 683 682 682 682 682 682 682 681 681 681 680 680 679 679 679 680
744 743 741 740 738 737 735 733 732 730 729 727 725 724 722 720 718 717 715 713 711 709 708 706 704 703 702 700 698 697 695 694 693 692 691 689 688 687 685 684 682 681 680 680 679 679 679 678 678 679 679 679 679 679 679 679 678 678 678 677 677 677 677 676 676 676 675 675 675
743 741 740 738 736 734 733 731 730 728 727 725 723 722 720 718 716 714 712 710 709 707 705 703 702 700 699 697 695 693 692 691 690 688 687 686 684 683 681 680 679 677 677 676 676 676 675 675 675 675 675 676 676 676 676 675 675 674 674 674 673 673 673 673 672 672 672 672 672
741 740 738 737 734 733 731 729 728 726 725 723 721 719 717 715 713 712 710 708 706 705 703 701 700 698 696 693 692 691 689 687 686 685 684 682 681 679 677 676 675 674 673 673 672 672 672 671 671 671 671 672 672 672 672 672 671 671 670 670 669 669 669 669 669 669 669 669 669
740 738 737 735 733 731 729 727 726 724 722 721 719 717 715 713 711 709 707 706 704 702 700 699 697 695 692 691 689 688 686 684 683 682 680 679 677 675 674 672 672 671 670 669 669 668 668 667 667 667 668 668 669 669 669 668 667 667 666 666 665 665 665 666 666 666 666 666 666
738 737 735 733 731 729 727 725 724 722 720 718 717 715 713 711 709 707 705 703 702 699 697 696 694 691 689 687 686 684 683 681 679 678 677 676 674 672 670 669 668 667 666 666 665 665 664 664 664 664 664 665 666 666 665 665 664 663 662 662 661 661 661 662 662 662 662 662 663
737 735 733 731 729 727 725 723 722 720 718 716 714 712 710 708 706 704 702 701 699 697 695 692 691 688 686 684 682 681 679 677 676 674 673 672 670 668 667 665 664 662 662 662 661 661 660 660 660 660 661 661 662 662 661 661 660 659 658 657 657 657 657 657 658 658 658 659 659
735 733 731 729 727 725 723 721 719 717 715 713 711 710 708 706 704 702 699 697 696 694 692 690 688 686 683 682 680 678 676 674 672 671 670 668 667 665 663 661 660 658 658 658 657 657 656 656 656 656 657 657 657 657 657 656 655 654 653 652 652 652 653 653 654 654 655 655 656
733 732 729 727 725 723 721 719 717 715 713 711 709 707 705 703 702 699 697 695 693 691 689 687 685 683 681 678 677 675 673 671 669 667 666 665 663 661 659 657 655 654 654 654 653 653 652 652 652 652 653 653 653 652 652 651 650 650 649 648 648 648 649 649 650 650 651 652 652
732 730 728 725 723 721 719 717 715 713 711 709 707 704 702 700 698 697 695 693 691 688 685 683 681 679 677 675 673 672 670 667 665 663 662 661 659 657 655 652 651 650 650 650 650 649 649 648 648 649 649 649 649 648 647 647 646 645 645 645 644 644 644 645 646 646 647 648 648
731 728 726 724 721 719 717 715 713 711 709 706 704 702 700 698 696 693 692 690 688 685 682 680 678 676 674 672 670 667 666 664 662 660 658 656 655 653 651 648 646 645 645 646 645 645 644 644 644 644 645 645 644 644 643 643 642 642 641 641 640 640 640 641 642 642 643 643 644
729 727 725 722 720 717 715 713 711 709 707 704 702 700 698 696 693 691 689 688 686 683 679 677 675 672 670 668 666 663 661 660 658 657 654 652 651 649 647 644 642 640 640 641 640 640 639 639 639 639 640 640 639 639 639 638 638 637 637 636 636 636 636 637 637 638 638 639 640
727 725 723 721 718 716 714 712 710 707 705 702 700 697 695 693 691 689 687 685 683 680 677 674 671 669 667 665 662 659 657 655 654 652 650 648 646 645 643 641 638 636 635 636 635 635 634 633 633 633 634 634 634 634 634 634 633 633 632 632 632 632 632 632 633 633 634 634 635
725 723 722 719 717 715 712 710 707 705 703 701 698 696 693 691 689 687 684 682 680 678 675 672 668 665 663 661 659 656 652 650 649 648 646 644 642 640 639 637 634 632 631 630 630 629 629 628 627 627 628 629 629 629 629 629 629 628 627 627 627 627 627 628 628 629 629 630 631
724 722 720 718 716 713 711 708 706 703 701 699 697 694 692 689 687 684 682 679 677 675 672 669 665 662 660 658 655 652 649 646 644 643 642 640 638 636 635 633 631 628 626 625 625 624 623 622 622 622 622 623 624 624 624 624 624 623 623 623 623 623 624 624 624 625 625 626 627